Time,TemperatureF,DewpointF,PressureIn,WindDirection,WindDirectionDegrees,WindSpeedMPH,WindSpeedGustMPH,Humidity,HourlyPrecipIn,Conditions,Clouds,dailyrainin,SolarRadiationWatts/m^2,SoftwareType,DateUTC
2013-08-08 00:21:00,62.0,49.0,-100.00,WNW,300,9.0,19.0,62,0.00,,,0.00,0.000000,,2013-08-08 06:21:00,
2013-08-08 00:32:00,62.0,49.0,-100.00,WNW,300,9.0,19.0,62,0.00,,,0.00,0.000000,,2013-08-08 06:32:00,
2013-08-08 00:43:00,62.0,49.0,-100.00,WNW,300,9.0,19.0,62,0.00,,,0.00,0.000000,,2013-08-08 06:43:00,
2013-08-08 00:52:00,62.0,49.0,-100.00,WNW,300,9.0,19.0,62,0.00,,,0.00,0.000000,,2013-08-08 06:52:00,
2013-08-08 01:22:00,60.0,49.0,-100.00,WNW,286,2.0,13.0,66,0.00,,,0.00,0.000000,,2013-08-08 07:22:00,
2013-08-08 01:32:00,60.0,49.0,-100.00,WNW,286,2.0,13.0,66,0.00,,,0.00,0.000000,,2013-08-08 07:32:00,
2013-08-08 01:43:00,60.0,49.0,-100.00,WNW,286,2.0,13.0,66,0.00,,,0.00,0.000000,,2013-08-08 07:43:00,
2013-08-08 01:53:00,60.0,49.0,-100.00,WNW,286,2.0,13.0,66,0.00,,,0.00,0.000000,,2013-08-08 07:53:00,
2013-08-08 02:22:00,61.0,50.0,-100.00,East,89,5.0,9.0,67,0.00,,,0.00,0.000000,,2013-08-08 08:22:00,
2013-08-08 02:32:00,61.0,50.0,-100.00,East,89,5.0,9.0,67,0.00,,,0.00,0.000000,,2013-08-08 08:32:00,
2013-08-08 02:43:00,61.0,50.0,-100.00,East,89,5.0,9.0,67,0.00,,,0.00,0.000000,,2013-08-08 08:43:00,
2013-08-08 02:53:00,61.0,50.0,-100.00,East,89,5.0,9.0,67,0.00,,,0.00,0.000000,,2013-08-08 08:53:00,
2013-08-08 03:22:00,60.0,49.0,-100.00,ESE,111,6.0,10.0,66,0.00,,,0.00,0.000000,,2013-08-08 09:22:00,
2013-08-08 03:32:00,60.0,49.0,-100.00,ESE,111,6.0,10.0,66,0.00,,,0.00,0.000000,,2013-08-08 09:32:00,
2013-08-08 03:43:00,60.0,49.0,-100.00,ESE,111,6.0,10.0,66,0.00,,,0.00,0.000000,,2013-08-08 09:43:00,
2013-08-08 03:53:00,60.0,49.0,-100.00,ESE,111,6.0,10.0,66,0.00,,,0.00,0.000000,,2013-08-08 09:53:00,
2013-08-08 04:22:00,60.0,48.0,-100.00,NE,37,3.0,10.0,65,0.00,,,0.00,0.000000,,2013-08-08 10:22:00,
2013-08-08 04:32:00,60.0,48.0,-100.00,NE,37,3.0,10.0,65,0.00,,,0.00,0.000000,,2013-08-08 10:32:00,
2013-08-08 04:43:00,60.0,48.0,-100.00,NE,37,3.0,10.0,65,0.00,,,0.00,0.000000,,2013-08-08 10:43:00,
2013-08-08 04:52:00,60.0,48.0,-100.00,NE,37,3.0,10.0,65,0.00,,,0.00,0.000000,,2013-08-08 10:52:00,
2013-08-08 05:22:00,59.0,50.0,-100.00,North,357,5.0,7.0,72,0.00,,,0.00,0.000000,,2013-08-08 11:22:00,
2013-08-08 05:32:00,59.0,50.0,-100.00,North,357,5.0,7.0,72,0.00,,,0.00,0.000000,,2013-08-08 11:32:00,
2013-08-08 05:43:00,59.0,50.0,-100.00,North,357,5.0,7.0,72,0.00,,,0.00,0.000000,,2013-08-08 11:43:00,
2013-08-08 05:52:00,59.0,50.0,-100.00,North,357,5.0,7.0,72,0.00,,,0.00,0.000000,,2013-08-08 11:52:00,
2013-08-08 06:21:00,60.0,52.0,-100.00,NNW,339,5.0,9.0,76,0.00,,,0.00,0.000000,,2013-08-08 12:21:00,
2013-08-08 06:32:00,60.0,52.0,-100.00,NNW,339,5.0,9.0,76,0.00,,,0.00,0.000000,,2013-08-08 12:32:00,
2013-08-08 06:43:00,60.0,52.0,-100.00,NNW,339,5.0,9.0,76,0.00,,,0.00,0.000000,,2013-08-08 12:43:00,
2013-08-08 06:52:00,60.0,52.0,-100.00,NNW,339,5.0,9.0,76,0.00,,,0.00,0.000000,,2013-08-08 12:52:00,
2013-08-08 07:32:00,59.0,51.0,-100.00,SW,215,1.0,7.0,75,0.00,,,0.00,27.000000,,2013-08-08 13:32:00,
2013-08-08 07:43:00,59.0,51.0,-100.00,SW,215,1.0,7.0,75,0.00,,,0.00,27.000000,,2013-08-08 13:43:00,
2013-08-08 07:52:00,59.0,51.0,-100.00,SW,215,1.0,7.0,75,0.00,,,0.00,27.000000,,2013-08-08 13:52:00,
2013-08-08 08:22:00,63.0,52.0,-100.00,South,177,3.0,5.0,67,0.00,,,0.00,154.000000,,2013-08-08 14:22:00,
2013-08-08 08:32:00,63.0,52.0,-100.00,South,177,3.0,5.0,67,0.00,,,0.00,154.000000,,2013-08-08 14:32:00,
2013-08-08 08:43:00,63.0,52.0,-100.00,South,177,3.0,5.0,67,0.00,,,0.00,154.000000,,2013-08-08 14:43:00,
2013-08-08 08:53:00,63.0,52.0,-100.00,South,177,3.0,5.0,67,0.00,,,0.00,154.000000,,2013-08-08 14:53:00,
2013-08-08 09:22:00,64.0,52.0,-100.00,ESE,115,1.0,5.0,64,0.00,,,0.00,119.000000,,2013-08-08 15:22:00,
2013-08-08 09:32:00,64.0,52.0,-100.00,ESE,115,1.0,5.0,64,0.00,,,0.00,119.000000,,2013-08-08 15:32:00,
2013-08-08 09:43:00,64.0,52.0,-100.00,ESE,115,1.0,5.0,64,0.00,,,0.00,119.000000,,2013-08-08 15:43:00,
2013-08-08 09:53:00,64.0,52.0,-100.00,ESE,115,1.0,5.0,64,0.00,,,0.00,119.000000,,2013-08-08 15:53:00,
2013-08-08 10:22:00,67.0,52.0,-100.00,SE,141,2.0,5.0,58,0.00,,,0.00,225.000000,,2013-08-08 16:22:00,
2013-08-08 10:32:00,67.0,52.0,-100.00,SE,141,2.0,5.0,58,0.00,,,0.00,225.000000,,2013-08-08 16:32:00,
2013-08-08 10:42:00,67.0,52.0,-100.00,SE,141,2.0,5.0,58,0.00,,,0.00,225.000000,,2013-08-08 16:42:00,
2013-08-08 10:52:00,67.0,52.0,-100.00,SE,141,2.0,5.0,58,0.00,,,0.00,225.000000,,2013-08-08 16:52:00,
2013-08-08 11:21:00,69.0,50.0,-100.00,SW,231,1.0,4.0,50,0.00,,,0.00,329.000000,,2013-08-08 17:21:00,
2013-08-08 11:32:00,69.0,50.0,-100.00,SW,231,1.0,4.0,50,0.00,,,0.00,329.000000,,2013-08-08 17:32:00,
2013-08-08 11:43:00,69.0,50.0,-100.00,SW,231,1.0,4.0,50,0.00,,,0.00,329.000000,,2013-08-08 17:43:00,
2013-08-08 11:52:00,69.0,50.0,-100.00,SW,231,1.0,4.0,50,0.00,,,0.00,329.000000,,2013-08-08 17:52:00,
2013-08-08 12:32:00,78.0,50.0,-100.00,WSW,258,2.0,9.0,37,0.00,,,0.00,712.000000,,2013-08-08 18:32:00,
2013-08-08 12:43:00,78.0,50.0,-100.00,WSW,258,2.0,9.0,37,0.00,,,0.00,712.000000,,2013-08-08 18:43:00,
2013-08-08 12:52:00,78.0,50.0,-100.00,WSW,258,2.0,9.0,37,0.00,,,0.00,712.000000,,2013-08-08 18:52:00,
2013-08-08 13:22:00,82.0,45.0,-100.00,WSW,253,3.0,9.0,27,0.00,,,0.00,1222.000000,,2013-08-08 19:22:00,
2013-08-08 13:32:00,82.0,45.0,-100.00,WSW,253,3.0,9.0,27,0.00,,,0.00,1222.000000,,2013-08-08 19:32:00,
2013-08-08 13:43:00,82.0,45.0,-100.00,WSW,253,3.0,9.0,27,0.00,,,0.00,1222.000000,,2013-08-08 19:43:00,
2013-08-08 13:54:00,82.0,45.0,-100.00,WSW,253,3.0,9.0,27,0.00,,,0.00,1222.000000,,2013-08-08 19:54:00,
2013-08-08 14:22:00,81.0,43.0,-100.00,WNW,282,8.0,14.0,26,0.00,,,0.00,1218.000000,,2013-08-08 20:22:00,
2013-08-08 14:32:00,81.0,43.0,-100.00,WNW,282,8.0,14.0,26,0.00,,,0.00,1218.000000,,2013-08-08 20:32:00,
2013-08-08 14:42:00,81.0,43.0,-100.00,WNW,282,8.0,14.0,26,0.00,,,0.00,1218.000000,,2013-08-08 20:42:00,
2013-08-08 14:52:00,81.0,43.0,-100.00,WNW,282,8.0,14.0,26,0.00,,,0.00,1218.000000,,2013-08-08 20:52:00,
2013-08-08 15:24:00,85.0,42.0,-100.00,NNW,330,6.0,16.0,22,0.00,,,0.00,1190.000000,,2013-08-08 21:24:00,
2013-08-08 15:33:00,85.0,42.0,-100.00,NNW,330,6.0,16.0,22,0.00,,,0.00,1190.000000,,2013-08-08 21:33:00,
2013-08-08 15:43:00,85.0,42.0,-100.00,NNW,330,6.0,16.0,22,0.00,,,0.00,1190.000000,,2013-08-08 21:43:00,
2013-08-08 15:53:00,85.0,42.0,-100.00,NNW,330,6.0,16.0,22,0.00,,,0.00,1190.000000,,2013-08-08 21:53:00,
2013-08-08 16:24:00,85.0,41.0,-100.00,NNE,17,4.0,12.0,21,0.00,,,0.00,859.000000,,2013-08-08 22:24:00,
2013-08-08 16:34:00,85.0,41.0,-100.00,NNE,17,4.0,12.0,21,0.00,,,0.00,859.000000,,2013-08-08 22:34:00,
2013-08-08 16:47:00,85.0,41.0,-100.00,NNE,17,4.0,12.0,21,0.00,,,0.00,859.000000,,2013-08-08 22:47:00,
2013-08-08 17:23:00,76.0,42.0,-100.00,East,80,6.0,20.0,30,-99.99,,,0.00,266.000000,,2013-08-08 23:23:00,
2013-08-08 17:35:00,76.0,42.0,-100.00,East,80,6.0,20.0,30,-99.99,,,0.00,266.000000,,2013-08-08 23:35:00,
2013-08-08 17:53:00,76.0,42.0,-100.00,East,80,6.0,20.0,30,-99.99,,,0.00,266.000000,,2013-08-08 23:53:00,
2013-08-08 18:24:00,75.0,44.0,-100.00,East,100,8.0,13.0,33,0.00,,,0.00,261.000000,,2013-08-09 00:24:00,
2013-08-08 18:34:00,75.0,44.0,-100.00,East,100,8.0,13.0,33,0.00,,,0.00,261.000000,,2013-08-09 00:34:00,
2013-08-08 18:45:00,75.0,44.0,-100.00,East,100,8.0,13.0,33,0.00,,,0.00,261.000000,,2013-08-09 00:45:00,
2013-08-08 18:53:00,75.0,44.0,-100.00,East,100,8.0,13.0,33,0.00,,,0.00,261.000000,,2013-08-09 00:53:00,
2013-08-08 19:24:00,71.0,44.0,-100.00,ESE,109,7.0,16.0,38,0.00,,,0.00,137.000000,,2013-08-09 01:24:00,
2013-08-08 19:34:00,71.0,44.0,-100.00,ESE,109,7.0,16.0,38,0.00,,,0.00,137.000000,,2013-08-09 01:34:00,
2013-08-08 19:56:00,71.0,44.0,-100.00,ESE,109,7.0,16.0,38,0.00,,,0.00,137.000000,,2013-08-09 01:56:00,
2013-08-08 20:24:00,67.0,47.0,-100.00,NE,54,10.0,18.0,48,0.00,,,0.00,31.000000,,2013-08-09 02:24:00,
2013-08-08 20:36:00,67.0,47.0,-100.00,NE,54,10.0,18.0,48,0.00,,,0.00,31.000000,,2013-08-09 02:36:00,
2013-08-08 20:45:00,67.0,47.0,-100.00,NE,54,10.0,18.0,48,0.00,,,0.00,31.000000,,2013-08-09 02:45:00,
2013-08-08 20:55:00,67.0,47.0,-100.00,NE,54,10.0,18.0,48,0.00,,,0.00,31.000000,,2013-08-09 02:55:00,
2013-08-08 21:23:00,67.0,45.0,-100.00,ESE,102,6.0,15.0,45,0.00,,,0.00,4.000000,,2013-08-09 03:23:00,
2013-08-08 21:34:00,67.0,45.0,-100.00,ESE,102,6.0,15.0,45,0.00,,,0.00,4.000000,,2013-08-09 03:34:00,
2013-08-08 21:52:00,67.0,45.0,-100.00,ESE,102,6.0,15.0,45,0.00,,,0.00,4.000000,,2013-08-09 03:52:00,
2013-08-08 22:22:00,67.0,43.0,-100.00,SE,130,6.0,10.0,42,0.00,,,0.00,0.000000,,2013-08-09 04:22:00,
2013-08-08 22:33:00,67.0,43.0,-100.00,SE,130,6.0,10.0,42,0.00,,,0.00,0.000000,,2013-08-09 04:33:00,
2013-08-08 22:43:00,67.0,43.0,-100.00,SE,130,6.0,10.0,42,0.00,,,0.00,0.000000,,2013-08-09 04:43:00,
2013-08-08 22:53:00,67.0,43.0,-100.00,SE,130,6.0,10.0,42,0.00,,,0.00,0.000000,,2013-08-09 04:53:00,
2013-08-08 23:22:00,64.0,44.0,-100.00,East,97,6.0,12.0,49,0.00,,,0.00,0.000000,,2013-08-09 05:22:00,
2013-08-08 23:32:00,64.0,44.0,-100.00,East,97,6.0,12.0,49,0.00,,,0.00,0.000000,,2013-08-09 05:32:00,
2013-08-08 23:43:00,64.0,44.0,-100.00,East,97,6.0,12.0,49,0.00,,,0.00,0.000000,,2013-08-09 05:43:00,
2013-08-08 23:52:00,64.0,44.0,-100.00,East,97,6.0,12.0,49,0.00,,,0.00,0.000000,,2013-08-09 05:52:00,